Hourly Data Report for April 22, 2021

NANAIMO A
BRITISH COLUMBIA
Current Station Operator: NAVCAN

49°03'16.000" N
123°52'12.000" W
28.00 m
1025365
YCD

Download Data

Hourly Data (April 2021)
Hourly Data Report for April 22, 2021
TIME
LST
Temp Definition
°C
Dew Point Definition
°C
Rel Hum Definition
%
Precip. Amount Definition
mm

Wind Dir Definition
10's deg

Wind Spd Definition
km/h
Visibility Definition
km
Stn Press Definition
kPa
Hmdx Definition


Wind Chill Definition


Weather Definition


00:00 6.1 3.6 84 LegendMM 34 8 LegendMM 100.86     LegendNANA
01:00 7.7 2.1 67 LegendMM 36 1 LegendMM 100.86     LegendNANA
02:00 7.3 1.8 68 LegendMM 8 8 LegendMM 100.83     LegendNANA
03:00 7.3 1.3 66 LegendMM 27 9 LegendMM 100.86     LegendNANA
04:00 6.4 1.1 69 LegendMM 3 3 LegendMM 100.89     LegendNANA
05:00 5.4 -0.2 67 LegendMM 36 9 LegendMM 100.94     LegendNANA
06:00 8.5 1.6 62 LegendMM 32 7 LegendMM 101.00     LegendNANA
07:00 11.5 3.2 57 LegendMM 34 8 LegendMM 101.07     LegendNANA
08:00 13.4 3.7 51 LegendMM 1 5 LegendMM 101.07     LegendNANA
09:00 14.7 4.5 50 LegendMM 2 17 LegendMM 101.05     LegendNANA
10:00 15.4 6.2 54 LegendMM 3 13 LegendMM 101.06     LegendNANA
11:00 15.8 6.0 52 LegendMM 1 16 LegendMM 101.07     LegendNANA
12:00 17.1 6.9 51 LegendMM 3 10 LegendMM 101.06     LegendNANA
13:00 18.0 3.9 39 LegendMM 6 3 LegendMM 101.02     LegendNANA
14:00 18.9 3.7 36 LegendMM 0 1 LegendMM 100.99     LegendNANA
15:00 19.5 4.1 36 LegendMM 10 7 LegendMM 100.94     LegendNANA
16:00 19.3 2.8 33 LegendMM 9 11 LegendMM 100.91     LegendNANA
17:00 19.0 4.0 37 LegendMM 15 10 LegendMM 100.89     LegendNANA
18:00 17.3 3.4 39 LegendMM 16 15 LegendMM 100.86     LegendNANA
19:00 14.7 5.8 55 LegendMM 18 9 LegendMM 100.84     LegendNANA
20:00 12.0 5.6 65 LegendMM 2 5 LegendMM 100.89     LegendNANA
21:00 10.2 4.8 69 LegendMM 26 5 LegendMM 100.93     LegendNANA
22:00 11.9 3.5 56 LegendMM 25 10 LegendMM 100.91     LegendNANA
23:00 8.1 5.0 81 LegendMM 29 2 LegendMM 100.93     LegendNANA

Notes on Data Quality.

Legend

  • E = Estimated
  • M = Missing
  • NA = Not Available*
  • [empty] = Indicates an unobserved value
Date modified: